Location: Riverton
(43.0250°N, 108.3790°W)
Time: 19:34:35
(UTC-07:00)

Amateur Radio Satellites - All Passes

Search period start: 22 February 2017 19:04
Search period end: 23 February 2017 19:04
Location: Riverton, 43.0250°N, 108.3790°W

Satellite Date Start Highest point End Downlink Frequencies (MHz)
Time Altitude Azimuth
ZACube-1 22 Feb 19:15:25 19:18:51 22° 66° (ENE) 19:22:22 437.345
CUTE-I 22 Feb 19:17:20 19:19:58 14° 271° (W) 19:22:39 437.470
AAUSAT CUBESAT 2 22 Feb 19:18:17 19:22:14 44° 72° (ENE) 19:26:12 437.432
SEEDS 22 Feb 19:19:35 19:23:50 87° 252° (WSW) 19:28:06 437.485
XW-2A 22 Feb 19:31:38 19:34:12 20° 266° (W) 19:36:49 145.665 - 145.685
HO-68 22 Feb 19:35:50 19:42:47 52° 260° (W) 19:49:46 435.675
STRAND 1 22 Feb 19:36:45 19:41:56 69° 102° (ESE) 19:47:03 437.568
CUBEBUG 2 22 Feb 19:38:42 19:43:05 83° 258° (WSW) 19:47:39 437.445
DELFI C3 22 Feb 19:46:07 19:47:08 11° 62° (ENE) 19:48:08 145.870
CUTE 1.7 + AOD 2 22 Feb 19:52:59 19:56:34 26° 265° (W) 20:00:09 437.475
RS-15 22 Feb 19:59:17 20:10:50 48° 320° (NW) 20:22:43 29.354- 29.394
AO-73 22 Feb 20:04:33 20:08:55 64° 74° (ENE) 20:13:25 145.935
Oscar 11 22 Feb 20:15:13 20:19:33 74° 77° (ENE) 20:23:56 .
UWE-3 22 Feb 20:22:46 20:26:59 45° 262° (W) 20:31:22 435.000/436.395/437.385
ZACube-1 22 Feb 20:50:47 20:54:53 38° 263° (W) 20:59:07 437.345
AAUSAT CUBESAT 2 22 Feb 20:55:19 20:57:55 16° 268° (W) 21:00:31 437.432
STRAND 1 22 Feb 21:17:19 21:20:32 17° 300° (WNW) 21:23:43 437.568
DELFI C3 22 Feb 21:17:25 21:21:23 68° 259° (W) 21:25:20 145.870
YUBILEINY 22 Feb 21:19:19 21:27:48 51° 75° (ENE) 21:36:11 435.215
PRISM 22 Feb 21:20:10 21:23:56 36° 98° (E) 21:27:42 437.425
AO-73 22 Feb 21:43:39 21:45:36 13° 271° (W) 21:47:35 145.935
SO-50 22 Feb 21:43:42 21:45:35 12° 108° (ESE) 21:47:28 436.795
ESTCUBE 1 22 Feb 21:47:51 21:51:08 20° 65° (ENE) 21:54:27 437.505/2401.250
Oscar 11 22 Feb 21:55:31 21:56:12 10° 272° (W) 21:56:53 .
UNISAT 6 22 Feb 22:11:58 22:16:38 58° 100° (E) 22:21:14 437.425
TIGRISAT 22 Feb 22:13:12 22:17:51 56° 100° (E) 22:22:26 435.000
RS-15 22 Feb 22:17:38 22:27:32 27° 353° (N) 22:37:27 29.354- 29.394
VELOX 1 22 Feb 22:26:18 22:29:10 17° 63° (ENE) 22:32:02 145.980
AIST 2D 22 Feb 22:32:02 22:32:50 11° 90° (E) 22:33:39 435.315
O/OREOS (USA 219) 22 Feb 22:34:10 22:37:43 23° 102° (ESE) 22:41:17 437.305
FO-29 22 Feb 22:43:14 22:50:52 58° 99° (E) 22:57:50 435.910
SPROUT 22 Feb 22:55:08 22:58:38 26° 68° (ENE) 23:02:11 437.525
PRISM 22 Feb 22:56:02 22:58:59 20° 295° (WNW) 23:01:55 437.425
YUBILEINY 22 Feb 23:16:36 23:24:17 37° 275° (W) 23:31:56 435.215
SO-50 22 Feb 23:20:43 23:25:25 81° 305° (NW) 23:30:03 436.795
ESTCUBE 1 22 Feb 23:23:21 23:27:39 43° 261° (W) 23:31:58 437.505/2401.250
50 SAT 22 Feb 23:33:53 23:37:20 56° 74° (ENE) 23:40:47 437.505
DUCHIFAT 1 22 Feb 23:39:39 23:43:37 36° 98° (E) 23:47:33 145.980
EO-79 22 Feb 23:46:56 23:51:09 53° 100° (E) 23:55:19 145.935-145.965
UNISAT 6 22 Feb 23:49:52 23:52:52 17° 297° (WNW) 23:55:50 437.425
TIGRISAT 22 Feb 23:50:59 23:54:05 18° 297° (WNW) 23:57:09 435.000
VELOX 1 23 Feb 00:00:59 00:05:14 49° 260° (W) 00:09:30 145.980
DX 1 23 Feb 00:01:43 00:06:01 77° 74° (ENE) 00:10:22 434.975-435.025
AIST 2D 23 Feb 00:02:54 00:06:22 48° 286° (WNW) 00:09:47 435.315
POLYITAN 1 23 Feb 00:03:29 00:07:49 82° 103° (ESE) 00:12:06 437.675
NANOSAT C BR1 23 Feb 00:05:41 00:10:00 80° 103° (ESE) 00:14:16 145.865
QB50P2 23 Feb 00:06:20 00:10:40 86° 280° (W) 00:14:57 145.880/145.840
O/OREOS (USA 219) 23 Feb 00:12:48 00:16:55 35° 300° (WNW) 00:21:05 437.305
PCSat 23 Feb 00:13:16 00:16:45 17° 39° (NE) 00:20:13 145.827
UKube-1 23 Feb 00:19:30 00:23:47 87° 76° (ENE) 00:28:07 .
FO-29 23 Feb 00:28:44 00:35:24 33° 299° (WNW) 00:41:40 435.910
SPROUT 23 Feb 00:30:45 00:34:27 29° 264° (W) 00:38:12 437.525
RS-15 23 Feb 00:34:03 00:45:07 35° 28° (NNE) 00:55:52 29.354- 29.394
BUGSAT 1 23 Feb 00:47:58 00:52:13 74° 103° (ESE) 00:56:27 437.445
ITUPSAT 1 23 Feb 00:54:14 00:57:14 17° 61° (ENE) 01:00:14 437.325
BEESAT 23 Feb 01:02:12 01:05:37 20° 63° (ENE) 01:09:04 436.000
SO-50 23 Feb 01:03:54 01:06:36 15° 324° (NW) 01:09:18 436.795
Oscar 19 23 Feb 01:14:39 01:19:25 38° 98° (E) 01:24:10 437.125/150
DUCHIFAT 1 23 Feb 01:15:51 01:19:04 21° 294° (WNW) 01:22:16 145.980
EO-79 23 Feb 01:23:56 01:26:28 16° 297° (WNW) 01:29:01 145.935-145.965
Gurwin Techsat 1B 23 Feb 01:37:32 01:42:25 35° 97° (E) 01:47:16 435.225
POLYITAN 1 23 Feb 01:41:57 01:42:56 11° 300° (WNW) 01:43:55 437.675
NANOSAT C BR1 23 Feb 01:43:57 01:45:04 11° 300° (WNW) 01:46:10 145.865
MOZHAYETS 4 23 Feb 01:47:26 01:50:41 19° 64° (ENE) 01:53:55
PCSat 23 Feb 01:55:32 02:01:01 82° 59° (ENE) 02:06:26 145.827
AO-7 23 Feb 01:59:19 02:00:55 11° 85° (E) 02:02:31 .
BUGSAT 1 23 Feb 02:25:33 02:26:59 12° 299° (WNW) 02:28:25 437.445
ITUPSAT 1 23 Feb 02:29:48 02:34:33 62° 258° (WSW) 02:39:21 437.325
BEESAT 23 Feb 02:38:24 02:43:02 50° 260° (W) 02:47:43 436.000
KKS-1 23 Feb 02:38:24 02:41:14 17° 63° (ENE) 02:44:05 437.445
CUBESAT XI-V 23 Feb 02:41:33 02:43:01 11° 60° (ENE) 02:44:29 437.345
RS-15 23 Feb 02:47:13 02:59:40 85° 56° (ENE) 03:11:34 29.354- 29.394
Oscar 19 23 Feb 02:54:16 02:58:34 28° 295° (WNW) 03:02:51 437.125/150
Gurwin Techsat 1B 23 Feb 03:17:38 03:22:16 32° 294° (WNW) 03:26:55 435.225
STARS 23 Feb 03:19:30 03:22:41 20° 65° (ENE) 03:25:53 437.465
ITAMSAT 1 23 Feb 03:21:22 03:26:33 59° 101° (E) 03:31:42 435.822/435.867
MOZHAYETS 4 23 Feb 03:22:58 03:27:28 49° 261° (W) 03:31:59
PCSat 23 Feb 03:40:55 03:43:39 14° 257° (WSW) 03:46:24 145.827
AO-7 23 Feb 03:47:02 03:55:18 63° 104° (ESE) 04:03:29 .
KKS-1 23 Feb 04:13:05 04:17:23 51° 260° (W) 04:21:44 437.445
CUBESAT XI-V 23 Feb 04:15:00 04:19:41 87° 254° (WSW) 04:24:22 437.345
M-CUBED/EXP-1 PRIME 23 Feb 04:39:19 04:42:35 54° 254° (WSW) 04:45:48 437.505
STARS 23 Feb 04:54:39 04:58:45 40° 261° (W) 05:02:54 437.465
RS-15 23 Feb 05:01:08 05:10:40 28° 259° (W) 05:19:56 29.354- 29.394
ITAMSAT 1 23 Feb 05:01:51 05:05:34 20° 299° (WNW) 05:09:16 435.822/435.867
AO-85 23 Feb 05:03:30 05:08:04 74° 121° (ESE) 05:12:18 145.980
STRAND 1 23 Feb 05:17:12 05:20:04 15° 59° (ENE) 05:22:56 437.568
AO-7 23 Feb 05:40:28 05:47:35 33° 304° (NW) 05:54:40 .
CUTE-I 23 Feb 05:50:31 05:55:09 29° 95° (E) 05:59:46 437.470
KAITUO 1B 23 Feb 05:55:01 05:58:10 24° 95° (E) 06:01:17 145.475/437.950
XW-2F 23 Feb 05:55:19 05:58:42 29° 96° (E) 06:02:04 145.980 - 146.000
XW-2D 23 Feb 05:58:17 06:01:49 34° 97° (E) 06:05:18 145.860 - 145.880
DOVE 4 23 Feb 06:01:16 06:05:43 44° 99° (E) 06:10:25 437.250
XW-2B 23 Feb 06:03:13 06:06:49 37° 98° (E) 06:10:22 145.730 - 145.750
BEESAT 3 23 Feb 06:07:34 06:10:20 19° 112° (ESE) 06:13:08 437.485
XW-2C 23 Feb 06:11:39 06:15:23 49° 99° (E) 06:19:05 145.795 - 145.815
SO-50 23 Feb 06:11:42 06:14:52 18° 39° (NE) 06:18:01 436.795
LilacSat-2 23 Feb 06:25:42 06:29:34 78° 102° (ESE) 06:33:24 437.200
NUDT-PHONESAT 23 Feb 06:32:35 06:36:22 74° 100° (E) 06:40:07 437.300
BEESAT 2 23 Feb 06:40:22 06:43:02 18° 111° (ESE) 06:45:43 435.950
AO-85 23 Feb 06:46:04 06:48:53 16° 319° (NW) 06:51:35 145.980
XW-2A 23 Feb 06:52:16 06:54:59 21° 95° (E) 06:57:40 145.665 - 145.685
STRAND 1 23 Feb 06:53:27 06:58:35 77° 257° (WSW) 07:03:46 437.568
HO-68 23 Feb 07:02:38 07:08:48 30° 95° (E) 07:14:56 435.675
SEEDS 23 Feb 07:03:53 07:06:11 14° 91° (E) 07:08:26 437.485
KAITUO 1B 23 Feb 07:29:03 07:32:06 23° 292° (WNW) 07:35:07 145.475/437.950
CUBEBUG 2 23 Feb 07:29:06 07:32:44 21° 92° (E) 07:36:20 437.445
XW-2F 23 Feb 07:29:50 07:32:41 20° 293° (WNW) 07:35:31 145.980 - 146.000
CUTE-I 23 Feb 07:30:18 07:35:16 39° 292° (WNW) 07:40:13 437.470
XW-2D 23 Feb 07:33:07 07:35:46 18° 294° (WNW) 07:38:23 145.860 - 145.880
CUTE 1.7 + AOD 2 23 Feb 07:36:03 07:40:10 49° 99° (E) 07:44:14 437.475
XW-2B 23 Feb 07:38:15 07:40:43 17° 294° (WNW) 07:43:10 145.730 - 145.750
DOVE 4 23 Feb 07:39:41 07:43:09 21° 294° (WNW) 07:46:46 437.250
ISS 23 Feb 07:42:07 07:42:25 10° 129° (SE) 07:42:43 437.550
BEESAT 3 23 Feb 07:43:57 07:47:39 41° 309° (NW) 07:51:26 437.485
XW-2C 23 Feb 07:47:16 07:49:10 13° 296° (WNW) 07:51:03 145.795 - 145.815
SO-50 23 Feb 07:51:19 07:55:49 71° 238° (WSW) 08:00:15 436.795
AO-73 23 Feb 07:53:36 07:55:28 12° 88° (E) 07:57:19 145.935
Oscar 11 23 Feb 08:03:19 08:05:15 13° 90° (E) 08:07:10 .
PRISM 23 Feb 08:10:19 08:13:52 30° 69° (ENE) 08:17:26 437.425
Tancredo 1 23 Feb 08:11:12 08:13:41 20° 135° (SE) 08:16:11 437.200
UWE-3 23 Feb 08:11:15 08:15:33 35° 96° (E) 08:19:48 435.000/436.395/437.385
BEESAT 2 23 Feb 08:16:41 08:20:28 44° 309° (NW) 08:24:21 435.950
XW-2A 23 Feb 08:24:55 08:27:42 23° 291° (WNW) 08:30:27 145.665 - 145.685
AAUSAT CUBESAT 2 23 Feb 08:34:30 08:38:37 74° 102° (ESE) 08:42:42 437.432
ZACube-1 23 Feb 08:37:50 08:42:09 39° 97° (E) 08:46:23 437.345
SEEDS 23 Feb 08:38:06 08:42:09 49° 287° (WNW) 08:46:10 437.485
O/OREOS (USA 219) 23 Feb 08:42:05 08:46:35 54° 63° (ENE) 08:51:05 437.305
HO-68 23 Feb 08:49:53 08:56:49 54° 293° (WNW) 09:03:42 435.675
DELFI C3 23 Feb 08:55:03 08:57:06 14° 91° (E) 08:59:06 145.870
FO-29 23 Feb 08:55:47 09:01:53 31° 60° (ENE) 09:08:24 435.910
CUBEBUG 2 23 Feb 09:05:00 09:09:31 43° 289° (WNW) 09:13:59 437.445
UNISAT 6 23 Feb 09:11:19 09:15:42 55° 72° (ENE) 09:20:12 437.425
TIGRISAT 23 Feb 09:12:24 09:16:45 52° 72° (ENE) 09:21:13 435.000
CUTE 1.7 + AOD 2 23 Feb 09:13:02 09:15:36 16° 296° (WNW) 09:18:09 437.475
ISS 23 Feb 09:15:04 09:18:21 81° 145° (SE) 09:21:40 437.550
AO-73 23 Feb 09:27:37 09:32:11 68° 285° (WNW) 09:36:38 145.935
Oscar 11 23 Feb 09:37:29 09:41:47 60° 286° (WNW) 09:46:00 .
PRISM 23 Feb 09:45:54 09:49:10 23° 265° (W) 09:52:26 437.425
Tancredo 1 23 Feb 09:46:33 09:49:45 53° 332° (NNW) 09:52:57 437.200
UWE-3 23 Feb 09:47:59 09:51:50 26° 293° (WNW) 09:55:38 435.000/436.395/437.385
AAUSAT CUBESAT 2 23 Feb 10:12:30 10:13:28 11° 299° (WNW) 10:14:27 437.432
ZACube-1 23 Feb 10:14:38 10:18:10 22° 294° (WNW) 10:21:39 437.345
YUBILEINY 23 Feb 10:20:58 10:29:29 57° 90° (E) 10:38:01 435.215
O/OREOS (USA 219) 23 Feb 10:22:47 10:25:31 16° 261° (W) 10:28:16 437.305
DELFI C3 23 Feb 10:28:22 10:32:08 45° 287° (WNW) 10:35:53 145.870
DUCHIFAT 1 23 Feb 10:32:17 10:35:57 30° 69° (ENE) 10:39:39 145.980
AIST 2D 23 Feb 10:37:43 10:41:13 64° 76° (ENE) 10:44:46 435.315
FO-29 23 Feb 10:39:26 10:46:21 61° 261° (W) 10:53:59 435.910
EO-79 23 Feb 10:39:58 10:43:57 43° 71° (ENE) 10:47:59 145.935-145.965
HO-68 23 Feb 10:40:55 10:42:58 11° 314° (NW) 10:45:01 435.675
UNISAT 6 23 Feb 10:50:09 10:52:46 15° 270° (W) 10:55:25 437.425
TIGRISAT 23 Feb 10:51:01 10:53:46 16° 270° (W) 10:56:34 435.000
ISS 23 Feb 10:52:20 10:55:07 24° 344° (NNW) 10:57:55 437.550
POLYITAN 1 23 Feb 10:56:30 11:00:42 67° 74° (ENE) 11:04:57 437.675
NANOSAT C BR1 23 Feb 10:58:14 11:02:23 64° 74° (ENE) 11:06:36 145.865
QB50P2 23 Feb 10:59:21 11:03:34 78° 77° (ENE) 11:07:51 145.880/145.840
ESTCUBE 1 23 Feb 11:14:43 11:18:50 35° 97° (E) 11:22:56 437.505/2401.250
Tancredo 1 23 Feb 11:24:06 11:26:34 19° 351° (N) 11:29:01 437.200
BUGSAT 1 23 Feb 11:38:16 11:42:14 55° 73° (ENE) 11:46:15 437.445
VELOX 1 23 Feb 11:50:08 11:53:56 28° 96° (E) 11:57:43 145.980
DX 1 23 Feb 11:50:50 11:52:36 12° 90° (E) 11:54:21 434.975-435.025
AO-85 23 Feb 11:55:37 11:56:50 11° 35° (NE) 11:58:01 145.980
UKube-1 23 Feb 12:07:13 12:09:17 13° 91° (E) 12:11:20 .
DUCHIFAT 1 23 Feb 12:08:13 12:11:37 24° 265° (W) 12:15:04 145.980
SPROUT 23 Feb 12:14:50 12:18:56 42° 98° (E) 12:23:01 437.525
EO-79 23 Feb 12:17:11 12:19:56 17° 268° (W) 12:22:42 145.935-145.965
YUBILEINY 23 Feb 12:18:55 12:26:42 34° 291° (WNW) 12:34:30 435.215
ISS 23 Feb 12:29:59 12:32:24 18° 4° (N) 12:34:47 437.550
50 SAT 23 Feb 12:30:49 12:34:13 54° 100° (E) 12:37:37 437.505
Oscar 19 23 Feb 12:32:12 12:37:16 62° 72° (ENE) 12:42:21 437.125/150
POLYITAN 1 23 Feb 12:35:47 12:36:57 11° 271° (W) 12:38:06 437.675
NANOSAT C BR1 23 Feb 12:37:10 12:38:32 11° 271° (W) 12:39:55 145.865
ESTCUBE 1 23 Feb 12:51:54 12:55:27 23° 294° (WNW) 12:58:59 437.505/2401.250
AO-7 23 Feb 12:57:17 13:03:19 23° 50° (NE) 13:09:22 .
Gurwin Techsat 1B 23 Feb 12:59:23 13:04:36 62° 72° (ENE) 13:09:52 435.225
Tancredo 1 23 Feb 13:01:10 13:03:40 20° 11° (N) 13:06:11 437.200
ITAMSAT 1 23 Feb 13:03:57 13:06:39 14° 58° (ENE) 13:09:21 435.822/435.867
BUGSAT 1 23 Feb 13:16:16 13:17:57 12° 270° (W) 13:19:39 437.445
DX 1 23 Feb 13:24:53 13:29:12 64° 286° (WNW) 13:33:29 434.975-435.025
VELOX 1 23 Feb 13:26:32 13:30:19 29° 293° (WNW) 13:34:07 145.980
AO-85 23 Feb 13:33:59 13:37:55 77° 55° (NE) 13:41:52 145.980
UKube-1 23 Feb 13:41:25 13:45:41 58° 287° (WNW) 13:49:54 .
SPROUT 23 Feb 13:51:31 13:54:33 19° 295° (WNW) 13:57:35 437.525
ISS 23 Feb 14:06:24 14:09:31 37° 24° (NNE) 14:12:36 437.550
50 SAT 23 Feb 14:06:36 14:06:53 10° 297° (WNW) 14:07:11 437.505
Oscar 19 23 Feb 14:13:44 14:17:00 17° 269° (W) 14:20:16 437.125/150
BEESAT 3 23 Feb 14:22:49 14:25:44 19° 42° (NE) 14:28:39 437.485
ITUPSAT 1 23 Feb 14:29:33 14:33:49 31° 96° (E) 14:38:03 437.325
Tancredo 1 23 Feb 14:37:13 14:40:26 63° 31° (NNE) 14:43:37 437.200
BEESAT 23 Feb 14:37:28 14:41:56 37° 98° (E) 14:46:20 436.000
ITAMSAT 1 23 Feb 14:40:11 14:45:23 84° 255° (WSW) 14:50:40 435.822/435.867
Gurwin Techsat 1B 23 Feb 14:41:28 14:44:58 18° 269° (W) 14:48:29 435.225
AO-7 23 Feb 14:46:38 14:55:01 88° 71° (ENE) 15:03:26 .
BEESAT 2 23 Feb 14:56:22 14:59:15 18° 42° (NE) 15:02:07 435.950
MOZHAYETS 4 23 Feb 15:17:01 15:21:16 35° 97° (E) 15:25:28
ISS 23 Feb 15:42:57 15:45:57 33° 222° (SW) 15:48:56 437.550
BEESAT 3 23 Feb 15:59:43 16:03:38 52° 241° (WSW) 16:07:30 437.485
KKS-1 23 Feb 16:03:11 16:07:00 27° 96° (E) 16:10:48 437.445
ITUPSAT 1 23 Feb 16:07:24 16:11:35 30° 293° (WNW) 16:15:44 437.325
CUBESAT XI-V 23 Feb 16:11:18 16:14:48 21° 93° (E) 16:18:17 437.345
Tancredo 1 23 Feb 16:14:18 16:16:24 16° 227° (SW) 16:18:30 437.200
BEESAT 23 Feb 16:15:37 16:19:30 25° 295° (WNW) 16:23:23 436.000
ITAMSAT 1 23 Feb 16:25:34 16:25:37 10° 273° (W) 16:25:40 435.822/435.867
BEESAT 2 23 Feb 16:33:22 16:37:21 56° 240° (WSW) 16:41:18 435.950
KAITUO 1B 23 Feb 16:36:55 16:39:05 15° 65° (ENE) 16:41:15 145.475/437.950
XW-2F 23 Feb 16:37:46 16:40:22 18° 66° (ENE) 16:42:59 145.980 - 146.000
PCSat 23 Feb 16:37:48 16:43:08 64° 116° (ESE) 16:48:31 145.827
XW-2D 23 Feb 16:40:52 16:43:44 20° 67° (ENE) 16:46:36 145.860 - 145.880
STARS 23 Feb 16:42:49 16:46:49 32° 97° (E) 16:50:47 437.465
AO-7 23 Feb 16:43:03 16:48:45 20° 269° (W) 16:54:30 .
XW-2B 23 Feb 16:45:42 16:48:42 22° 68° (ENE) 16:51:43 145.730 - 145.750
XW-2C 23 Feb 16:53:54 16:57:12 27° 69° (ENE) 17:00:30 145.795 - 145.815
MOZHAYETS 4 23 Feb 16:54:31 16:58:15 25° 294° (WNW) 17:01:57
DOVE 4 23 Feb 17:08:07 17:12:04 44° 72° (ENE) 17:16:02 437.250
LilacSat-2 23 Feb 17:08:09 17:11:49 41° 72° (ENE) 17:15:30 437.200
RS-15 23 Feb 17:10:39 17:21:53 51° 110° (ESE) 17:33:31 29.354- 29.394
NUDT-PHONESAT 23 Feb 17:12:47 17:16:15 36° 72° (ENE) 17:19:45 437.300
CUTE-I 23 Feb 17:13:03 17:18:11 51° 70° (ENE) 17:23:21 437.470
HO-68 23 Feb 17:32:55 17:38:38 27° 58° (ENE) 17:44:22 435.675
KKS-1 23 Feb 17:39:37 17:43:32 30° 292° (WNW) 17:47:26 437.445
CUBESAT XI-V 23 Feb 17:48:02 17:52:19 39° 290° (WNW) 17:56:34 437.345
M-CUBED/EXP-1 PRIME 23 Feb 17:50:01 17:53:44 82° 108° (ESE) 17:57:45 437.505
SEEDS 23 Feb 17:57:16 17:59:03 12° 62° (ENE) 18:00:50 437.485
KAITUO 1B 23 Feb 18:09:06 18:12:44 43° 261° (W) 18:16:25 145.475/437.950
XW-2F 23 Feb 18:10:44 18:14:16 35° 263° (W) 18:17:50 145.980 - 146.000
XW-2D 23 Feb 18:14:19 18:17:44 30° 263° (W) 18:21:11 145.860 - 145.880
STARS 23 Feb 18:19:22 18:23:01 26° 294° (WNW) 18:26:40 437.465
XW-2B 23 Feb 18:19:26 18:22:46 27° 264° (W) 18:26:06 145.730 - 145.750
PCSat 23 Feb 18:22:40 18:26:58 24° 316° (NW) 18:31:19 145.827
XW-2C 23 Feb 18:28:21 18:31:23 22° 266° (W) 18:34:26 145.795 - 145.815
CUBEBUG 2 23 Feb 18:28:24 18:31:33 19° 64° (ENE) 18:34:46 437.445
CUTE 1.7 + AOD 2 23 Feb 18:29:16 18:33:15 39° 71° (ENE) 18:37:15 437.475
LilacSat-2 23 Feb 18:44:04 18:46:18 15° 269° (W) 18:48:33 437.200
DOVE 4 23 Feb 18:47:38 18:50:03 15° 269° (W) 18:52:29 437.250
NUDT-PHONESAT 23 Feb 18:47:59 18:50:20 16° 268° (W) 18:52:42 437.300
AO-73 23 Feb 18:50:35 18:52:12 12° 60° (ENE) 18:53:49 145.935
CUTE-I 23 Feb 18:54:29 18:58:30 22° 267° (W) 19:02:34 437.470
XW-2A 23 Feb 18:56:21 18:59:41 58° 260° (W) 19:03:04 145.665 - 145.685
Oscar 11 23 Feb 18:59:35 19:01:22 12° 61° (ENE) 19:03:09 .
